Concordia, KS

6:21 PM CDT on April 26, 2018 (GMT -0500)
Blosser Municipal

Weather History for KCNK - May, 2013

Change the Weather History Date:

Wednesday, May 29, 2013

  Actual Average Record
Temperature  
Mean Temperature 71 °F 67 °F  
Max Temperature 82 °F 78 °F 102 °F (1913)
Min Temperature 60 °F 56 °F 32 °F (1947)
Degree Days  
Heating Degree Days 0 2  
Month to date heating degree days 152 127  
Since 1 July heating degree days 5499 5391  
Cooling Degree Days 6 4  
Month to date cooling degree days 85 62  
Year to date cooling degree days 95 79  
Growing Degree Days 22 (Base 50)    
Moisture  
Dew Point 64 °F    
Average Humidity 76    
Maximum Humidity 90    
Minimum Humidity 62    
Precipitation  
Precipitation 0.13 in 0.14 in 3.69 in (1903)
Month to date precipitation 5.09 3.87  
Year to date precipitation 10.94 9.70  
Snow  
Snow 0.00 in 0.00 in T in (1951)
Month to date snowfall T 0.0  
Year to date snowfall 20.3 13.7  
Since 1 July snowfall 28.8 20.2  
Snow Depth 0.00 in    
Sea Level Pressure  
Sea Level Pressure 29.58 in    
Wind  
Wind Speed 17 mph (SSE)    
Max Wind Speed 40 mph    
Max Gust Speed 53 mph    
Visibility 10 miles    
Events Rain , Thunderstorm    
T = Trace of Precipitation, MM = Missing Value Source: NWS Daily Summary

Daily Weather History Graph

Daily Weather History Graph

Search for Another Location

Airport or City:

Astronomy

May. 29, 2013 Rise Set
Actual Time 6:06 AM CDT 8:50 PM CDT
Civil Twilight 5:34 AM CDT 9:21 PM CDT
Nautical Twilight 4:55 AM CDT 10:01 PM CDT
Astronomical Twilight 4:10 AM CDT 10:46 PM CDT
Moon 12:14 AM CDT (5/29) 11:06 AM CDT (5/29)
Length of Visible Light 15h 46m
Length of Day
14h 43m
Waning Gibbous, 73% of the Moon is Illuminated
May 29
Waning Gibbous
May 31
Last Quarter
Jun 8
New
Jun 16
First Quarter
Jun 23
Full

Hourly Weather History & Observations

Time (CDT) Temp. Heat Index Dew Point Humidity Pressure Visibility Wind Dir Wind Speed Gust Speed Precip Events Conditions
12:55 AM 71.1 °F - 64.9 °F 81% 29.60 in 10.0 mi South 11.5 mph 23.0 mph N/A   Clear
1:55 AM 71.1 °F - 64.9 °F 81% 29.61 in 10.0 mi South 15.0 mph 24.2 mph N/A   Clear
2:55 AM 72.0 °F - 64.9 °F 78% 29.60 in 10.0 mi SSE 17.3 mph 25.3 mph N/A   Scattered Clouds
3:55 AM 70.0 °F - 64.9 °F 84% 29.61 in 10.0 mi SE 10.4 mph - N/A   Clear
4:55 AM 69.1 °F - 64.9 °F 87% 29.61 in 10.0 mi SE 9.2 mph - N/A   Partly Cloudy
5:55 AM 69.1 °F - 64.0 °F 84% 29.61 in 10.0 mi SSE 11.5 mph - N/A   Partly Cloudy
6:55 AM 70.0 °F - 64.0 °F 81% 29.60 in 10.0 mi ESE 5.8 mph - N/A   Clear
7:10 AM 71.6 °F - 64.4 °F 78% 29.67 in 10.0 mi Calm Calm - N/A Thunderstorm Mostly Cloudy
7:34 AM 69.8 °F - 64.4 °F 83% 29.67 in 10.0 mi SE 6.9 mph - 0.00 in Rain Light Rain
7:55 AM 70.0 °F - 64.9 °F 84% 29.64 in 10.0 mi SSE 6.9 mph - 0.00 in   Mostly Cloudy
8:06 AM 69.8 °F - 64.4 °F 83% 29.67 in 10.0 mi SE 8.1 mph - N/A   Scattered Clouds
8:55 AM 69.1 °F - 66.0 °F 90% 29.61 in 9.0 mi SE 11.5 mph - 0.00 in Rain Light Rain
9:03 AM 69.8 °F - 66.2 °F 88% 29.67 in 10.0 mi SSE 20.7 mph 26.5 mph 0.00 in Rain , Thunderstorm Light Rain
9:36 AM 69.8 °F - 66.2 °F 88% 29.64 in 9.0 mi SSE 15.0 mph - 0.01 in Rain Light Rain
9:55 AM 72.0 °F - 68.0 °F 87% 29.59 in 10.0 mi SSE 24.2 mph 31.1 mph 0.01 in   Mostly Cloudy
10:47 AM 71.6 °F - 66.2 °F 83% 29.63 in 10.0 mi SSE 21.9 mph 28.8 mph N/A   Mostly Cloudy
10:55 AM 72.0 °F - 66.9 °F 84% 29.59 in 10.0 mi SSE 20.7 mph 31.1 mph N/A   Mostly Cloudy
11:04 AM 71.6 °F - 66.2 °F 83% 29.63 in 10.0 mi SSE 21.9 mph 34.5 mph 0.00 in Rain , Thunderstorm Light Rain
11:19 AM 69.8 °F - 66.2 °F 88% 29.63 in 5.0 mi SSE 23.0 mph 34.5 mph 0.01 in Rain , Thunderstorm Light Rain
11:52 AM 71.6 °F - 66.2 °F 83% 29.64 in 10.0 mi SSE 15.0 mph - 0.01 in   Scattered Clouds
11:55 AM 72.0 °F - 66.9 °F 84% 29.61 in 10.0 mi SSE 13.8 mph - 0.01 in   Scattered Clouds
12:04 PM 73.4 °F - 68.0 °F 83% 29.64 in 10.0 mi SSE 13.8 mph 21.9 mph N/A   Mostly Cloudy
12:55 PM 78.1 °F - 68.0 °F 71% 29.57 in 10.0 mi South 24.2 mph 31.1 mph N/A   Mostly Cloudy
1:08 PM 78.8 °F - 69.8 °F 74% 29.61 in 10.0 mi South 25.3 mph 33.4 mph N/A   Mostly Cloudy
1:55 PM 81.0 °F 84.1 °F 69.1 °F 67% 29.54 in 10.0 mi South 23.0 mph 35.7 mph N/A   Mostly Cloudy
2:55 PM 80.1 °F 82.3 °F 66.9 °F 64% 29.52 in 10.0 mi South 21.9 mph 33.4 mph N/A   Mostly Cloudy
3:55 PM 78.1 °F - 66.0 °F 66% 29.52 in 10.0 mi South 23.0 mph 32.2 mph N/A   Overcast
4:06 PM 78.8 °F - 64.4 °F 61% 29.56 in 10.0 mi South 18.4 mph 31.1 mph N/A Thunderstorm Thunderstorm
4:43 PM 75.2 °F - 66.2 °F 73% 29.53 in 10.0 mi South 17.3 mph 28.8 mph 0.04 in Rain Light Rain
4:55 PM 75.0 °F - 66.9 °F 76% 29.49 in 10.0 mi South 21.9 mph 26.5 mph 0.04 in Thunderstorm Overcast
5:10 PM 75.2 °F - 64.4 °F 69% 29.53 in 10.0 mi South 24.2 mph 40.3 mph N/A   Overcast
5:55 PM 64.9 °F - 61.0 °F 87% 29.51 in 7.0 mi South 20.7 mph 35.7 mph 0.01 in Rain Light Rain
6:04 PM 64.4 °F - 60.8 °F 88% 29.55 in 10.0 mi South 17.3 mph 27.6 mph 0.01 in Rain , Thunderstorm Light Rain
6:30 PM 62.6 °F - 59.0 °F 88% 29.52 in 10.0 mi South 21.9 mph 27.6 mph 0.02 in Rain , Thunderstorm Light Rain
6:55 PM 62.1 °F - 59.0 °F 90% 29.49 in 10.0 mi SSE 23.0 mph 33.4 mph 0.03 in Rain Light Rain
7:06 PM 62.6 °F - 59.0 °F 88% 29.51 in 10.0 mi South 21.9 mph 36.8 mph 0.00 in Rain , Thunderstorm Light Rain
7:28 PM 66.2 °F - 57.2 °F 73% 29.47 in 10.0 mi South 17.3 mph 35.7 mph 0.00 in Rain Light Rain
7:35 PM 64.4 °F - 57.2 °F 77% 29.49 in 10.0 mi South 17.3 mph 29.9 mph 0.00 in Rain , Thunderstorm Light Rain
7:50 PM 64.4 °F - 57.2 °F 77% 29.52 in 10.0 mi SSE 21.9 mph 36.8 mph 0.00 in Rain Light Rain
7:55 PM 64.0 °F - 57.0 °F 78% 29.49 in 10.0 mi SSE 24.2 mph 29.9 mph 0.00 in   Overcast
8:55 PM 64.9 °F - 59.0 °F 81% 29.51 in 10.0 mi South 16.1 mph 26.5 mph N/A   Clear
9:55 PM 69.1 °F - 64.0 °F 84% 29.47 in 10.0 mi SSE 26.5 mph 32.2 mph N/A   Clear
10:24 PM 66.2 °F - 60.8 °F 83% 29.63 in 10.0 mi West 36.8 mph 52.9 mph N/A   Scattered Clouds
10:55 PM 61.0 °F - 57.0 °F 87% 29.59 in 10.0 mi WNW 20.7 mph 41.4 mph 0.02 in Rain Light Rain
11:55 PM 61.0 °F - 57.0 °F 87% 29.57 in 10.0 mi NNW 10.4 mph - 0.01 in   Mostly Cloudy